map of GOJ home
Great Circle Mapper logo
GOJ - Airport
Location
City:  Nizhniy Novgorod, Russian Federation (Russia)
Name:Strigino
ICAO / IATA:UWGG / GOJ

Details
Type:Airport (Aerodrome, Airfield)
Use:Public/Civil
Latitude:5613'48"N (56.230119)
Longitude:4347'03"E (43.784042)
Datum:WGS 1984
Elevation:256 ft (78 m)
Runways:4
Longest:9203 × 148 ft (2805 × 45 m), paved

Time
Time Zone:UTC+3 (DST+4)

Weather
METAR:UWGG 291400Z VRB01MPS 8000 SCT020CB BKN100 29/15 Q1014 TEMPO TSRA 36090070 RMK QFE753
TAF:UWGG 291350Z 2915/3015 24003MPS 4000 -TSRA BR BKN020 BKN030CB
TEMPO 2921/3002 0300 FG

Related Locations
Nearby:
Farthest:CHT: 10486 mi / 16875 km
Waitangi [Tuuta], Chatham Islands, NZ

Find:

   beyond  
but within

Other Information
Maps:
NOTAMs:
Links:
Sources:

  
flag of Russian Federation (Russia)   

Sectional Chart

Flight Planning
at skyvector.com

Satellite Image

Google Maps Satellite View

 

Copyright © 2004-2014 Karl L. Swartz. All rights reserved.
The Great Circle Mapper name and logo are trademarks of the Great Circle Mapper.
All other trademarks mentioned herein belong to their respective owners.
Please see credits for attibutions and further copyright information.

  Follow gcmap on Facebook Follow gcmap on Twitter

hCard Microformat

Geo Microformat